Marshfield, WI

5:37 PM CST on February 12, 2016 (GMT -0600)
Marshfield Municipal

Weather History for KMFI - October, 2012

Change the Weather History Date:

Wednesday, October 24, 2012

  Actual Average Record
Temperature  
Mean Temperature 64 °F -  
Max Temperature 68 °F 56 °F 78 °F (1989)
Min Temperature 60 °F 35 °F 12 °F (1917)
Degree Days  
Heating Degree Days 1    
Growing Degree Days 14 (Base 50)    
Moisture  
Dew Point 62 °F    
Average Humidity 95    
Maximum Humidity 100    
Minimum Humidity 87    
Precipitation  
Precipitation 0.00 in - - ()
Sea Level Pressure  
Sea Level Pressure 29.80 in    
Wind  
Wind Speed 7 mph (SSE)    
Max Wind Speed 12 mph    
Max Gust Speed -    
Visibility 4 miles    
Events Fog , Rain    
Averages and records for this station are not official NWS values.
T = Trace of Precipitation, MM = Missing Value Source: NWS Daily Summary

Daily Weather History Graph

Daily Weather History Graph

Search for Another Location

Airport or City:

Trip Planner

Search our weather history database for the weather conditions in past years. The results will help you decide how hot, cold, wet, or windy it might be!

Date:

Astronomy

Oct. 24, 2012 Rise Set
Actual Time 7:28 AM CDT 6:00 PM CDT
Civil Twilight 6:58 AM CDT 6:30 PM CDT
Nautical Twilight 6:24 AM CDT 7:04 PM CDT
Astronomical Twilight 5:50 AM CDT 7:38 PM CDT
Moon 3:26 PM CDT (10/24) 2:12 AM CDT (10/24)
Length of Visible Light 11h 31m
Length of Day
10h 32m
Waxing Gibbous, 76% of the Moon is Illuminated
Oct 24
Waxing Gibbous
Oct 29
Full
Nov 6
Last Quarter
Nov 13
New
Nov 20
First Quarter

Hourly Weather History & Observations

Time (CDT) Temp. Dew Point Humidity Pressure Visibility Wind Dir Wind Speed Gust Speed Precip Events Conditions
12:01 AM 60.8 °F 60.8 °F 100% 29.84 in 1.8 mi South 8.1 mph - N/A   Overcast
12:20 AM 60.8 °F 60.8 °F 100% 29.84 in 2.0 mi South 10.4 mph - N/A   Overcast
12:54 AM 61.0 °F 61.0 °F 100% 29.84 in 2.5 mi South 8.1 mph - N/A   Overcast
1:54 AM 61.0 °F 61.0 °F 100% 29.84 in 2.5 mi South 3.5 mph - N/A   Overcast
2:08 AM 60.8 °F 60.8 °F 100% 29.83 in 3.0 mi Calm Calm - N/A   Overcast
2:54 AM 62.1 °F 61.0 °F 96% 29.84 in 3.0 mi South 5.8 mph - N/A   Overcast
3:40 AM 60.8 °F 60.8 °F 100% 29.83 in 2.5 mi Calm Calm - N/A   Overcast
3:54 AM 62.1 °F 61.0 °F 96% 29.83 in 2.5 mi SSE 4.6 mph - N/A   Overcast
4:54 AM 62.1 °F 61.0 °F 96% 29.83 in 2.0 mi SSE 5.8 mph - N/A   Overcast
5:07 AM 62.6 °F 60.8 °F 94% 29.83 in 1.8 mi SSE 8.1 mph - N/A   Overcast
5:21 AM 62.6 °F 60.8 °F 94% 29.83 in 2.0 mi SSE 4.6 mph - N/A   Overcast
5:54 AM 62.1 °F 61.0 °F 96% 29.84 in 2.5 mi SSE 6.9 mph - N/A   Overcast
6:50 AM 62.6 °F 60.8 °F 94% 29.85 in 1.8 mi SSE 4.6 mph - N/A   Overcast
6:54 AM 62.1 °F 61.0 °F 96% 29.85 in 1.5 mi SSE 4.6 mph - N/A   Overcast
7:54 AM 61.0 °F 61.0 °F 100% 29.86 in 0.8 mi South 5.8 mph - N/A   Overcast
8:54 AM 61.0 °F 61.0 °F 100% 29.86 in 0.5 mi SSE 5.8 mph - N/A Fog Fog
9:54 AM 61.0 °F 61.0 °F 100% 29.86 in 0.2 mi SSE 5.8 mph - N/A Fog Fog
10:54 AM 62.1 °F 62.1 °F 100% 29.84 in 0.5 mi SSE 9.2 mph - N/A Fog Fog
11:11 AM 62.6 °F 62.6 °F 100% 29.84 in 1.2 mi SSE 9.2 mph - N/A   Overcast
11:54 AM 63.0 °F 62.1 °F 97% 29.84 in 1.2 mi SSE 8.1 mph - N/A   Overcast
12:42 PM 62.6 °F 62.6 °F 100% 29.82 in 2.0 mi SSE 8.1 mph - N/A   Overcast
12:54 PM 64.0 °F 63.0 °F 96% 29.80 in 2.5 mi SE 8.1 mph - N/A   Overcast
1:03 PM 64.4 °F 62.6 °F 94% 29.80 in 3.0 mi SE 10.4 mph - N/A   Overcast
1:23 PM 64.4 °F 62.6 °F 94% 29.80 in 3.0 mi SE 6.9 mph - N/A   Overcast
1:54 PM 64.9 °F 63.0 °F 93% 29.80 in 2.5 mi SSE 6.9 mph - N/A   Overcast
2:20 PM 64.4 °F 62.6 °F 94% 29.79 in 3.0 mi SSE 8.1 mph - N/A   Overcast
2:54 PM 66.0 °F 63.0 °F 90% 29.78 in 4.0 mi SE 6.9 mph - N/A   Overcast
3:23 PM 66.2 °F 64.4 °F 94% 29.77 in 5.0 mi SE 8.1 mph - N/A   Overcast
3:54 PM 66.9 °F 64.0 °F 90% 29.76 in 5.0 mi SE 6.9 mph - N/A   Overcast
4:54 PM 66.9 °F 64.0 °F 90% 29.75 in 5.0 mi SE 5.8 mph - N/A   Overcast
5:05 PM 66.2 °F 64.4 °F 94% 29.76 in 4.0 mi ESE 5.8 mph - N/A   Overcast
5:14 PM 66.2 °F 64.4 °F 94% 29.76 in 4.0 mi ESE 8.1 mph - N/A   Overcast
5:54 PM 66.0 °F 64.0 °F 93% 29.75 in 5.0 mi SE 5.8 mph - 0.00 in   Overcast
6:27 PM 66.2 °F 64.4 °F 94% 29.74 in 5.0 mi ESE 6.9 mph - N/A   Overcast
6:54 PM 66.0 °F 64.0 °F 93% 29.73 in 6.0 mi SE 6.9 mph - N/A   Overcast
7:42 PM 68.0 °F 64.4 °F 88% 29.72 in 8.0 mi SSE 11.5 mph - N/A   Overcast
7:54 PM 68.0 °F 64.0 °F 87% 29.71 in 8.0 mi SSE 10.4 mph - N/A   Overcast
8:54 PM 66.9 °F 64.0 °F 90% 29.71 in 10.0 mi South 10.4 mph - N/A   Overcast
9:54 PM 66.9 °F 64.0 °F 90% 29.69 in 10.0 mi South 8.1 mph - N/A   Partly Cloudy
10:54 PM 68.0 °F 64.0 °F 87% 29.70 in 9.0 mi South 8.1 mph - 0.00 in Rain Light Rain
11:54 PM 66.0 °F 64.0 °F 93% 29.67 in 7.0 mi South 8.1 mph - 0.00 in   Partly Cloudy